MET2565 - Kansas City to Amarillo

Bombardier Dash-8-Q200
837AG
1 hr 45 mins
414 nm
Scheduled - Daily

Bid/PiRep Status

Bid was submitted on Oct 02 2016.

PiRep # 73559: Approved by Dave Nichols on October 5th, 2016 7:32 UTC

Departure

Departing from
Kansas City (MCI)
Departure gate
Scheduled Departure
GMT 1710
Local 1210
METAR KMCI 170253Z 23005KT 10SM FEW065 SCT130 BKN200 23/23 A2984 RMK AO2 SLP096 60000 T02330228 53006
TAF KMCI 162320Z 1700/1724 25007KT P6SM VCTS BKN050CB FM170200 28008KT P6SM SCT150 FM171500 30010KT P6SM FEW200

Arrival

Arriving at
Amarillo (AMA)
Arrival gate
A2
Scheduled Arrival
GMT 1855
Local 1355

Route Map

Planning Resources

FRACA,ICT,GAG, KAMA
WLDCT2 V12 PNH
WLDCT2.ICT J26 PNH
KMCI KENTN ICT ZENDA GAG PNH KAMA
FRACA ICT GAG PNH KAMA
Route:
OFP Layout:
Units:
Detailed Navlog:
ETOPS Planning:
Plan Stepclimbs:
Runway Analysis:
Include NOTAMS:
FIR NOTAMS:
Flight Maps:

Return Flights

MET2564
Bombardier Dash-8-Q200
1305 GMT
MET2566
Bombardier Dash-8-Q200
1915 GMT
MET2568
Bombardier Dash-8-Q200
0015 GMT

Popularity

Hub Current Bids PiReps this month Total PiReps
KMCI 0 0 13
KLAX 0 0 1
KBOS 0 0 0